Location: Katowice
(50.2611°N, 19.0242°E)
Time: 04:37:26
(UTC+02:00)

Altair - All Passes

Search period start: 15 October 2019 00:00
Search period end: 25 October 2019 00:00
Orbit: 1501 x 1683 km, 47.2° (Epoch: 14 October)

Date Brightness Start Highest point End Pass type
(mag) Time Alt. Az. Time Alt. Az. Time Alt. Az.
15 Oct - 10:35:07 10° SE 10:36:16 10° ESE 10:37:24 10° ESE daylight
15 Oct - 12:30:05 10° SSW 12:38:34 37° SE 12:47:18 10° E daylight
15 Oct - 14:32:40 10° WSW 14:42:18 68° SSE 14:52:18 10° E daylight
15 Oct - 16:36:59 10° W 16:46:53 74° S 16:57:00 10° ESE daylight
15 Oct - 18:41:38 10° W 18:51:06 49° SSW 19:00:40 10° SE visible
15 Oct - 20:47:40 10° W 20:54:06 19° SW 21:00:31 10° SSW visible
16 Oct - 12:05:14 10° SSW 12:13:30 34° SE 12:22:02 10° E daylight
16 Oct - 14:07:34 10° WSW 14:17:09 66° SSE 14:27:05 10° E daylight
16 Oct - 16:11:49 10° W 16:21:41 75° S 16:31:49 10° ESE daylight
16 Oct - 18:16:26 10° W 18:25:58 51° SSW 18:35:37 10° SE visible
16 Oct - 20:22:13 10° W 20:29:04 21° SW 20:35:57 10° S visible
17 Oct - 11:40:23 10° SSW 11:48:26 32° SE 11:56:45 10° E daylight
17 Oct - 13:42:29 10° WSW 13:51:59 64° SSE 14:01:52 10° E daylight
17 Oct - 15:46:39 10° W 15:56:30 76° S 16:06:37 10° ESE daylight
17 Oct - 17:51:15 10° W 18:00:50 53° SSW 18:10:33 10° SE daylight
17 Oct - 19:56:49 10° W 20:04:02 23° SW 20:11:17 10° S visible
18 Oct - 11:15:35 10° SSW 11:23:24 30° SE 11:31:27 10° E daylight
18 Oct - 13:17:24 10° SW 13:26:50 62° SSE 13:36:39 10° E daylight
18 Oct - 15:21:30 10° W 15:31:18 76° S 15:41:24 10° E daylight
18 Oct - 17:26:04 10° W 17:35:41 56° SSW 17:45:29 10° SE daylight
18 Oct - 19:31:27 10° W 19:38:59 25° SW 19:46:34 10° S visible
19 Oct - 10:50:49 10° S 10:58:22 28° SE 11:06:08 10° E daylight
19 Oct - 12:52:21 10° SW 13:01:42 60° SSE 13:11:25 10° E daylight
19 Oct - 14:56:20 10° W 15:06:07 76° S 15:16:13 10° E daylight
19 Oct - 17:00:54 10° W 17:10:32 58° SSW 17:20:23 10° SE daylight
19 Oct - 19:06:07 10° W 19:13:57 27° SW 19:21:49 10° S visible
20 Oct - 10:26:05 10° S 10:33:21 26° SE 10:40:47 10° E daylight
20 Oct - 12:27:18 10° SW 12:36:34 57° SSE 12:46:13 10° E daylight
20 Oct - 14:31:12 10° W 14:40:55 76° S 14:51:00 10° E daylight
20 Oct - 16:35:43 10° W 16:45:23 60° SSW 16:55:16 10° SE daylight
20 Oct - 18:40:49 10° W 18:48:53 29° SW 18:57:02 10° S visible
21 Oct - 10:01:24 10° S 10:08:20 23° SE 10:15:25 10° E daylight
21 Oct - 12:02:16 10° SW 12:11:26 55° SSE 12:21:00 10° E daylight
21 Oct - 14:06:04 10° W 14:15:44 76° S 14:25:47 10° E daylight
21 Oct - 16:10:33 10° W 16:20:13 62° SSW 16:30:08 10° SE daylight
21 Oct - 18:15:32 10° W 18:23:48 31° SW 18:32:12 10° SSE visible
22 Oct - 09:36:46 10° S 09:43:19 21° SE 09:50:01 10° E daylight
22 Oct - 11:37:14 10° SW 11:46:19 53° SSE 11:55:46 10° E daylight
22 Oct - 13:40:55 10° WSW 13:50:33 75° S 14:00:34 10° E daylight
22 Oct - 15:45:23 10° W 15:55:03 64° SSW 16:05:01 10° ESE daylight
22 Oct - 17:50:16 10° W 17:58:44 33° SW 18:07:19 10° SSE daylight
23 Oct - 09:12:12 10° S 09:18:19 20° SE 09:24:34 10° E daylight
23 Oct - 11:12:14 10° SW 11:21:13 50° SSE 11:30:33 10° E daylight
23 Oct - 13:15:47 10° WSW 13:25:22 75° S 13:35:21 10° E daylight
23 Oct - 15:20:14 10° W 15:29:54 66° SSW 15:39:51 10° ESE daylight
23 Oct - 17:25:02 10° W 17:33:39 35° SW 17:42:25 10° SSE daylight
24 Oct - 08:47:42 10° SSE 08:53:20 18° SE 08:59:04 10° E daylight
24 Oct - 10:47:15 10° SW 10:56:07 48° SSE 11:05:19 10° E daylight
24 Oct - 12:50:39 10° WSW 13:00:12 74° S 13:10:08 10° E daylight
24 Oct - 14:55:04 10° W 15:04:43 68° SSW 15:14:42 10° ESE daylight
24 Oct - 16:59:49 10° W 17:08:34 37° SW 17:17:29 10° SSE daylight
24 Oct - 19:08:39 10° WSW 19:11:04 11° WSW 19:13:29 10° SW visible
